C/2017 C1 ( NEOWISE )

Japanese version
Home page
Updated on April 1, 2017

---------------------------------------------------------------------

* Profile

Discovery Date February 6, 2017
Magnitude 19 mag
Discoverer Near-Earth Object Wide-field Infrared Survey Explorer

* Pictures

* Orbital Elements

Epoch 2017 Jan. 7.0 TT = JDT 2457760.5
T 2017 Jan. 18.88728 TT                                 MPCW
q   1.5012048            (2000.0)            P               Q
n   0.01070605     Peri.  110.16291     -0.32732344     -0.94405507
a  20.3883985      Node   357.47000     +0.02719781     +0.03315710
e   0.9263697      Incl.   65.73163     +0.94452086     -0.32811679
P  92.06
From 34 observations 2017 Feb. 6-Mar. 25, mean residual 0".5.

* Magnitudes Graph

        m1 = 17.5 + 5 log d + 10.0 log r

---------------------------------------------------------------------

The orbital elements are published on M.P.E.C. 2017-F136.
The magnitudes graphs are made with Comet for Windows.

---------------------------------------------------------------------

Copyright(C) Seiichi Yoshida (comet@aerith.net). All rights reserved.